Hourly Data Report for May 04, 2004

TORONTO CITY
ONTARIO

43°40'00.000" N
79°24'00.000" W
112.50 m
6158355
71508
XTO

Download Data

Hourly Data (May 2004)
Hourly Data Report for May 4, 2004
TIME
LST
Temp Definition
°C
Dew Point Definition
°C
Rel Hum Definition
%
Precip. Amount Definition
mm

Wind Dir Definition
10's deg

Wind Spd Definition
km/h
Visibility Definition
km
Stn Press Definition
kPa
Hmdx Definition


Wind Chill Definition


Weather Definition


00:00 2.2 -0.9 80   LegendMM LegendMM LegendMM 100.46     LegendNANA
01:00 1.6 -1.1 82   LegendMM LegendMM LegendMM 100.46     LegendNANA
02:00 1.2 -1.1 85   LegendMM LegendMM LegendMM 100.45     LegendNANA
03:00 0.5 -1.4 87   LegendMM LegendMM LegendMM 100.45     LegendNANA
04:00 0.3 -1.8 86   LegendMM LegendMM LegendMM 100.47     LegendNANA
05:00 0.1 -2.4 83   LegendMM LegendMM LegendMM 100.49     LegendNANA
06:00 0.6 -2.0 83   LegendMM LegendMM LegendMM 100.54     LegendNANA
07:00 2.5 -2.0 72   LegendMM LegendMM LegendMM 100.52     LegendNANA
08:00 5.5 -1.8 59   LegendMM LegendMM LegendMM 100.52     LegendNANA
09:00 6.0 0.0 65   LegendMM LegendMM LegendMM 100.49     LegendNANA
10:00 6.9 -0.8 58   LegendMM LegendMM LegendMM 100.46     LegendNANA
11:00 7.3 -2.4 50   LegendMM LegendMM LegendMM 100.41     LegendNANA
12:00 8.5 -0.5 53   LegendMM LegendMM LegendMM 100.32     LegendNANA
13:00 9.4 -0.2 51   LegendMM LegendMM LegendMM 100.22     LegendNANA
14:00 10.8 0.2 48   LegendMM LegendMM LegendMM 100.12     LegendNANA
15:00 11.5 -1.1 42   LegendMM LegendMM LegendMM 100.05     LegendNANA
16:00 11.7 1.5 50   LegendMM LegendMM LegendMM 100.00     LegendNANA
17:00 11.7 0.5 46   LegendMM LegendMM LegendMM 99.94     LegendNANA
18:00 10.5 0.6 50   LegendMM LegendMM LegendMM 99.91     LegendNANA
19:00 9.9 1.1 54   LegendMM LegendMM LegendMM 99.91     LegendNANA
20:00 9.0 3.4 68   LegendMM LegendMM LegendMM 99.90     LegendNANA
21:00 9.3 3.2 66   LegendMM LegendMM LegendMM 99.93     LegendNANA
22:00 7.9 4.1 77   LegendMM LegendMM LegendMM 99.87     LegendNANA
23:00 8.1 4.1 76   LegendMM LegendMM LegendMM 99.79     LegendNANA

Notes on Data Quality.

Legend

  • E = Estimated
  • M = Missing
  • NA = Not Available*
  • [empty] = Indicates an unobserved value
Date modified: